This is the latest recevied weather packets stored in our database for station/object KB1JL-13. If no packets are shown the sender has not sent any weather packets the latest 10 day(s).
| Time | Temp. | Humidity | Pressure | Rain* | Wind** | Luminosity | Snow |
|---|---|---|---|---|---|---|---|
| 1777680501 | 12.22° C | 67% | 1022.6 hPa | 0 mm | - | 0 W/m² | - |
| 1777680199 | 12.22° C | 66% | 1022.6 hPa | 0 mm | - | 0 W/m² | - |
| 1777679894 | 12.78° C | 65% | 1022.6 hPa | 0 mm | - | 0 W/m² | - |
| 1777679590 | 12.78° C | 64% | 1022.6 hPa | 0 mm | - | 0 W/m² | - |
| 1777679286 | 12.78° C | 63% | 1022.2 hPa | 0 mm | - | 1 W/m² | - |
| 1777678983 | 12.78° C | 64% | 1022.2 hPa | 0 mm | - | 3 W/m² | - |
| 1777678682 | 12.78° C | 63% | 1022.6 hPa | 0 mm | - | 6 W/m² | - |
| 1777678379 | 13.33° C | 60% | 1022.2 hPa | 0 mm | - | 8 W/m² | - |
| 1777678074 | 13.89° C | 55% | 1021.9 hPa | 0 mm | - | 10 W/m² | - |
| 1777677771 | 13.89° C | 51% | 1021.6 hPa | 0 mm | - | 13 W/m² | - |
| 1777677469 | 13.89° C | 52% | 1021.6 hPa | 0 mm | - | 15 W/m² | - |
| 1777677167 | 13.89° C | 49% | 1021.6 hPa | 0 mm | - | 17 W/m² | - |
| 1777676865 | 14.44° C | 49% | 1021.6 hPa | 0 mm | - | 21 W/m² | - |
| 1777676563 | 14.44° C | 46% | 1021.6 hPa | 0 mm | - | 23 W/m² | - |
| 1777676261 | 14.44° C | 45% | 1021.9 hPa | 0 mm | - | 24 W/m² | - |
| 1777675958 | 15° C | 46% | 1021.6 hPa | 0 mm | - | 26 W/m² | - |
| 1777675654 | 15° C | 44% | 1021.6 hPa | 0 mm | - | 29 W/m² | - |
| 1777675352 | 15.56° C | 44% | 1021.6 hPa | 0 mm | - | 62 W/m² | - |
| 1777675047 | 15.56° C | 45% | 1021.6 hPa | 0 mm | - | 78 W/m² | - |
| 1777674744 | 15.56° C | 46% | 1021.6 hPa | 0 mm | - | 87 W/m² | - |
| 1777674441 | 15.56° C | 47% | 1021.6 hPa | 0 mm | - | 112 W/m² | - |
| 1777674139 | 15.56° C | 44% | 1021.6 hPa | 0 mm | - | 67 W/m² | - |
| 1777673835 | 16.11° C | 44% | 1021.6 hPa | 0 mm | - | 143 W/m² | - |
| 1777673531 | 16.11° C | 44% | 1021.6 hPa | 0 mm | - | 166 W/m² | - |
| 1777673229 | 16.11° C | 46% | 1021.6 hPa | 0 mm | - | 182 W/m² | - |
* Rain latest hour (hover to see other rain measurements)
** Current wind speed in m/s (hover to see current wind gust speed)